# Land Stadt Wetter Temperatur Luftdruck Luftfeuchtigkeit Sichtweite Windgeschwindigkeit Windrichtung Ortszeit
1 ad Andorra la Vella Clouds 11 1012 80 436 4 248 02.08.2018 14:22
2 ae Dubai Clear 34 1003 27 10000 7 180 02.08.2018 14:21
3 af Kabul Clouds 22 1020 37 10000 15 130 02.08.2018 14:21
4 ar Buenos Aires Clear 13 1020 82 10000 4 70 02.08.2018 14:22
5 ar Esquel Fog 1 1023 100 300 9 290 02.08.2018 14:22
6 ar Ushuaia Clouds 8 1019 61 10000 32 340 02.08.2018 14:22
7 at Innsbruck Clouds 8 1009 87 10000 6 80 02.08.2018 14:23
8 at Wien Rain 12 1007 82 10000 19 290 02.08.2018 14:22
9 au Alice Springs Clear 19 1021 32 10000 22 110 02.08.2018 14:21
10 au Darwin Clear 31 1010 29 10000 17 90 02.08.2018 14:22
11 au Perth Clear 23 1018 35 10000 17 70 02.08.2018 14:21
12 au Sydney Clear 17 1009 42 10000 5 299 02.08.2018 14:22
13 bg Sofia Clouds 13 1009 94 10000 6 275 02.08.2018 14:21
14 bg Warna Rain 15 1008 100 6000 6 250 02.08.2018 14:21
15 bo La Paz Clouds 6 1021 69 10000 3 297 02.08.2018 14:22
16 bo Potisi Clear 4 1020 39 10000 5 290 02.08.2018 14:22
17 br Manaus Clear 26 1012 89 10000 4 360 02.08.2018 14:21
18 br Rio de Janeiro Clouds 22 1018 83 10000 9 90 02.08.2018 14:22
19 bs Nassau Clouds 26 1018 61 10000 20 70 02.08.2018 14:22
20 ca Montreal Clouds 12 1020 58 10000 4 230 02.08.2018 14:22
21 cd Kisangani Clouds 23 1013 94 10000 2 54 02.08.2018 14:23
22 ch Andermatt Rain 3 1007 93 10000 3 228 02.08.2018 14:23
23 ch Bern Clouds 7 1008 100 10000 6 270 02.08.2018 14:23
24 ck Avarua Clouds 26 1018 73 10000 7 140 02.08.2018 14:22
25 cl Santiago Mist 13 1018 87 4900 1 188 02.08.2018 14:23
26 cn Lhasa Clouds 16 1005 35 10000 6 219 02.08.2018 14:22
27 cn Peking Clear 26 1011 22 10000 7 0 02.08.2018 14:23
28 cn Shanghai Clouds 29 1003 65 10000 18 280 02.08.2018 14:21
29 de Berlin Clear 11 1003 87 10000 15 170 02.08.2018 14:21
30 de Braunschweig Clouds 10 1002 82 10000 13 220 02.08.2018 14:21
31 de Bremen Clouds 10 1000 93 10000 9 180 02.08.2018 14:22
32 de Dresden Clouds 10 1004 87 10000 13 190 02.08.2018 14:22
33 de Emden Clouds 10 999 97 10000 5 159 02.08.2018 14:21
34 de Flensburg Clouds 9 999 93 10000 8 101 02.08.2018 14:21
35 de Frankfurt Clouds 10 1005 87 10000 7 160 02.08.2018 14:22
36 de Freiburg Clouds 11 1006 84 10000 9 195 02.08.2018 14:22
37 de Hamburg Clouds 9 1000 93 10000 9 160 02.08.2018 14:21
38 de Hannover Clouds 11 1001 82 10000 9 210 02.08.2018 14:21
39 de Helgoland Mist 9 999 93 5000 7 180 02.08.2018 14:22
40 de Hiddensee Clouds 11 1002 84 10000 16 186 02.08.2018 14:21
41 de Kassel Clouds 9 1003 93 10000 15 200 02.08.2018 14:21
42 de Köln Clouds 9 1003 87 10000 13 170 02.08.2018 14:21
43 de Magdeburg Clouds 10 997 100 10000 16 208 02.08.2018 14:22
44 de München Clouds 7 1008 96 10000 8 212 02.08.2018 14:21
45 de Nürnberg Rain 8 1006 81 10000 9 160 02.08.2018 14:21
46 de Oberstdorf Clouds 6 1008 94 10000 2 150 02.08.2018 14:21
47 de Stuttgart Clouds 10 1007 76 10000 13 220 02.08.2018 14:22
48 de Torfhaus Clouds 9 1004 78 10000 15 225 02.08.2018 14:22
49 de Trier Clouds 9 1003 100 10000 17 190 02.08.2018 14:21
50 do Santo Domingo Clouds 24 1014 94 10000 7 90 02.08.2018 14:21
51 ec San Cristobal Clouds 24 1013 86 10000 15 155 02.08.2018 14:22
52 eg Kairo Clear 27 1008 23 10000 6 280 02.08.2018 14:22
53 es Barcelona Clear 16 1009 82 10000 8 211 02.08.2018 14:22
54 es Las Palmas de Gran Canaria Clouds 20 1014 73 10000 43 10 02.08.2018 14:21
55 es Madrid Clear 14 1016 94 10000 11 240 02.08.2018 14:23
56 es Palma de Mallorca Clouds 15 1011 94 10000 5 267 02.08.2018 14:22
57 es Sevilla Clear 17 1016 77 10000 9 70 02.08.2018 14:22
58 es Tarifa Clear 17 1014 68 10000 9 260 02.08.2018 14:21
59 et Addis Abeba Rain 17 1017 69 10000 4 178 02.08.2018 14:23
60 fi Helsinki Clouds 12 1006 71 10000 11 260 02.08.2018 14:21
61 fi Rovaniemi Clouds 5 1007 100 10000 17 80 02.08.2018 14:21
62 fj Suva Rain 28 1012 83 10000 17 80 02.08.2018 14:21
63 fr Bordeaux Mist 14 1007 100 4400 9 240 02.08.2018 14:21
64 fr Nizza Clear 16 1007 72 10000 6 250 02.08.2018 14:22
65 fr Paris Clouds 10 1004 87 10000 11 200 02.08.2018 14:22
66 gb Glasgow Clouds 6 998 93 7000 6 30 02.08.2018 14:21
67 gb London Clouds 9 999 87 10000 7 220 02.08.2018 14:22
68 gb Manchester Clouds 8 996 93 10000 6 0 02.08.2018 14:21
69 gl Nuuk Clouds 2 1026 100 7000 13 10 02.08.2018 14:22
70 gr Athen Clear 19 1008 52 10000 7 330 02.08.2018 14:22
71 id Jakarta Clouds 34 1007 55 6000 15 30 02.08.2018 14:22
72 ie Dublin Fog 6 994 100 10000 9 360 02.08.2018 14:21
73 in Jagatsukh Clouds 18 1019 68 5654 2 234 02.08.2018 14:22
74 in Mumbai Smoke 33 1000 55 5000 17 60 02.08.2018 14:22
75 in Nagpur Clouds 36 1008 36 6000 20 150 02.08.2018 14:21
76 iq Bagdad Clear 31 1004 20 10000 13 310 02.08.2018 14:22
77 is Reykjavik Clear 0 1017 60 10000 6 70 02.08.2018 14:22
78 it Mailand Fog 12 1007 100 8000 2 180 02.08.2018 14:21
79 it Palermo Clouds 17 1010 55 10000 6 196 02.08.2018 14:22
80 it Rom Clear 16 1012 59 10000 13 180 02.08.2018 14:23
81 jp Nagasaki Clouds 27 1007 83 10000 48 210 02.08.2018 14:21
82 jp Tokio Clouds 20 1014 78 10000 19 200 02.08.2018 14:22
83 ke Nairobi Clouds 16 1022 94 10000 5 148 02.08.2018 14:22
84 kr Seoul Rain 18 1000 94 3000 13 90 02.08.2018 14:21
85 ma Casablanca Clear 16 1015 67 10000 9 30 02.08.2018 14:23
86 ma Marrakesch Clouds 19 1013 52 8000 4 0 02.08.2018 14:23
87 mg Antananarivo Clouds 15 1023 94 10000 7 130 02.08.2018 14:21
88 mn Ulaanbaatar Clear 17 1015 19 10000 22 270 02.08.2018 14:23
89 mn Uliastai Clouds 13 1017 27 10000 10 251 02.08.2018 14:23
90 mv Male Clouds 31 1008 79 10000 26 260 02.08.2018 14:23
91 mx Mexiko Stadt Clouds 17 1027 59 10000 28 280 02.08.2018 14:21
92 mx Veracruz Clouds 26 1014 57 10000 2 318 02.08.2018 14:21
93 no Hammerfest Drizzle 1 1012 93 10000 22 60 02.08.2018 14:22
94 no Oslo Clouds 8 979 92 10000 10 177 02.08.2018 14:23
95 nz Wellington Clouds 15 1007 77 10000 41 350 02.08.2018 14:23
96 pe Cusco Clouds 7 1022 86 10000 3 4 02.08.2018 14:23
97 pg Port Moresby Haze 30 1006 79 10000 19 140 02.08.2018 14:21
98 ph Manila Clouds 35 1009 49 10000 17 140 02.08.2018 14:21
99 pt Lissabon Clouds 17 1018 88 10000 9 260 02.08.2018 14:22
100 qa Doha Clear 38 1004 11 10000 9 290 02.08.2018 14:23
101 ru Amderma Clear -3 1021 73 10000 2 228 02.08.2018 14:23
102 ru Anadyr Clear 6 1019 56 10000 14 60 02.08.2018 14:23
103 ru Jakutsk Clouds 18 995 25 10000 14 120 02.08.2018 14:22
104 ru Moskau Clear 17 1011 77 10000 14 200 02.08.2018 14:22
105 ru Surgut Clouds 8 1014 93 10000 18 80 02.08.2018 14:23
106 ru Werchojansk Clear 15 1000 23 10000 14 108 02.08.2018 14:22
107 sa Riad Clear 34 1009 9 10000 15 80 02.08.2018 14:21
108 sb Honiara Clouds 30 1008 70 10000 9 80 02.08.2018 14:22
109 se Stockholm Clouds 9 1005 87 10000 6 130 02.08.2018 14:23
110 th Bangkok Clouds 35 1006 58 10000 17 184 02.08.2018 14:21
111 tr Alanya Clear 19 1012 23 8000 7 230 02.08.2018 14:22
112 tr Ankara Clear 17 1008 59 10000 8 271 02.08.2018 14:23
113 tr Istanbul Clouds 19 1008 63 10000 6 110 02.08.2018 14:23
114 ua Kiew Clear 15 1012 77 10000 4 193 02.08.2018 14:21
115 us Chicago Clouds 14 1021 62 10000 7 200 02.08.2018 14:23
116 us Death Valley Clear 14 1002 46 10000 5 286 02.08.2018 14:22
117 us Denver Clouds 12 1012 78 10000 3 201 02.08.2018 14:21
118 us Fairbanks Rain 12 1004 62 10000 20 240 02.08.2018 14:23
119 us Honolulu Clouds 23 1020 60 10000 19 50 02.08.2018 14:22
120 us Las Vegas Clouds 25 1005 11 10000 26 230 02.08.2018 14:21
121 us Los Angeles Clouds 15 1014 72 10000 6 250 02.08.2018 14:22
122 us Miami Clouds 25 1019 61 10000 13 50 02.08.2018 14:23
123 us New York Clear 17 1024 48 10000 11 230 02.08.2018 14:22
124 us Nome Clear 8 1009 37 10000 22 360 02.08.2018 14:23
125 us Tucson Clear 25 1011 18 10000 22 250 02.08.2018 14:21
126 uy Montevideo Fog 8 1019 100 7000 9 20 02.08.2018 14:22
127 vn Hanoi Clouds 33 1006 62 10000 7 120 02.08.2018 14:21
128 za Kapstadt Clear 11 1017 93 10000 4 230 02.08.2018 14:22